Time,TemperatureF,DewpointF,PressureIn,WindDirection,WindDirectionDegrees,WindSpeedMPH,WindSpeedGustMPH,Humidity,HourlyPrecipIn,Conditions,Clouds,dailyrainin,SoftwareType,DateUTC
2013-05-04 00:02:00,43.2,32.6,30.28,NNW,338,0.0,0.0,66,0.00,,,0.01,WUHU216HW,2013-05-04 04:02:00,
2013-05-04 00:07:00,43.0,30.4,30.28,NNW,338,0.0,0.0,61,0.00,,,0.00,WUHU216HW,2013-05-04 04:07:00,
2013-05-04 00:12:00,42.8,29.9,30.28,NNW,338,0.0,0.2,60,0.00,,,0.00,WUHU216HW,2013-05-04 04:12:00,
2013-05-04 00:17:00,42.8,29.4,30.28,NNW,338,0.0,0.4,59,0.00,,,0.00,WUHU216HW,2013-05-04 04:17:00,
2013-05-04 00:22:00,42.8,31.1,30.28,NNW,338,0.0,0.4,63,0.00,,,0.00,WUHU216HW,2013-05-04 04:22:00,
2013-05-04 00:27:00,42.7,31.7,30.28,NNW,338,0.0,0.0,65,0.00,,,0.00,WUHU216HW,2013-05-04 04:27:00,
2013-05-04 00:32:00,42.5,32.3,30.28,NNW,338,0.0,0.0,67,0.00,,,0.00,WUHU216HW,2013-05-04 04:32:00,
2013-05-04 00:37:00,42.1,32.0,30.28,NNW,338,0.0,0.0,67,0.00,,,0.00,WUHU216HW,2013-05-04 04:37:00,
2013-05-04 00:42:00,41.9,31.4,30.28,NNW,338,0.0,0.0,66,0.00,,,0.00,WUHU216HW,2013-05-04 04:42:00,
2013-05-04 00:47:00,41.8,30.9,30.27,NNW,338,0.0,0.0,65,0.00,,,0.00,WUHU216HW,2013-05-04 04:47:00,
2013-05-04 00:52:00,41.6,30.7,30.28,NNW,338,0.0,0.0,65,0.00,,,0.00,WUHU216HW,2013-05-04 04:52:00,
2013-05-04 00:57:00,41.4,30.9,30.27,NNW,338,0.0,0.0,66,0.00,,,0.00,WUHU216HW,2013-05-04 04:57:00,
2013-05-04 01:02:00,41.2,30.7,30.27,NNW,338,0.0,0.0,66,0.00,,,0.00,WUHU216HW,2013-05-04 05:02:00,
2013-05-04 01:07:00,41.0,30.5,30.27,NNW,338,0.0,0.0,66,0.00,,,0.00,WUHU216HW,2013-05-04 05:07:00,
2013-05-04 01:12:00,40.9,30.7,30.27,NNW,338,0.0,0.0,67,0.00,,,0.00,WUHU216HW,2013-05-04 05:12:00,
2013-05-04 01:17:00,40.7,30.5,30.27,NNW,338,0.0,0.0,67,0.00,,,0.00,WUHU216HW,2013-05-04 05:17:00,
2013-05-04 01:22:00,40.5,30.3,30.26,NNW,338,0.0,0.0,67,0.00,,,0.00,WUHU216HW,2013-05-04 05:22:00,
2013-05-04 01:27:00,40.3,29.8,30.26,NNW,338,0.0,0.0,66,0.00,,,0.00,WUHU216HW,2013-05-04 05:27:00,
2013-05-04 01:32:00,40.1,28.5,30.26,NNW,338,0.0,0.0,63,0.00,,,0.00,WUHU216HW,2013-05-04 05:32:00,
2013-05-04 01:37:00,40.3,28.3,30.26,NNW,338,0.0,0.0,62,0.00,,,0.00,WUHU216HW,2013-05-04 05:37:00,
2013-05-04 01:42:00,40.3,27.5,30.26,NNW,338,0.0,0.0,60,0.00,,,0.00,WUHU216HW,2013-05-04 05:42:00,
2013-05-04 01:48:00,40.3,27.1,30.26,NNW,338,0.0,0.0,59,0.00,,,0.00,WUHU216HW,2013-05-04 05:48:00,
2013-05-04 01:53:00,40.1,24.3,30.26,NNW,338,0.0,0.0,53,0.00,,,0.00,WUHU216HW,2013-05-04 05:53:00,
2013-05-04 01:58:00,40.0,25.4,30.25,NNW,338,0.0,0.0,56,0.00,,,0.00,WUHU216HW,2013-05-04 05:58:00,
2013-05-04 02:03:00,39.8,24.9,30.25,NNW,338,0.0,0.0,55,0.00,,,0.00,WUHU216HW,2013-05-04 06:03:00,
2013-05-04 02:08:00,39.6,22.9,30.25,NNW,338,0.0,0.0,51,0.00,,,0.00,WUHU216HW,2013-05-04 06:08:00,
2013-05-04 02:13:00,39.8,23.0,30.25,NNW,338,0.0,0.0,51,0.00,,,0.00,WUHU216HW,2013-05-04 06:13:00,
2013-05-04 02:18:00,39.6,24.7,30.25,NNW,338,0.0,0.0,55,0.00,,,0.00,WUHU216HW,2013-05-04 06:18:00,
2013-05-04 02:23:00,39.4,25.7,30.25,NNW,338,0.0,0.0,58,0.00,,,0.00,WUHU216HW,2013-05-04 06:23:00,
2013-05-04 02:28:00,39.1,21.4,30.25,NNW,338,0.4,0.4,49,0.00,,,0.00,WUHU216HW,2013-05-04 06:28:00,
2013-05-04 02:33:00,39.2,23.1,30.24,NNW,338,0.0,0.4,52,0.00,,,0.00,WUHU216HW,2013-05-04 06:33:00,
2013-05-04 02:38:00,39.1,24.1,30.24,NNW,338,0.0,0.2,55,0.00,,,0.00,WUHU216HW,2013-05-04 06:38:00,
2013-05-04 02:43:00,38.9,25.3,30.24,NNW,338,0.0,0.0,58,0.00,,,0.00,WUHU216HW,2013-05-04 06:43:00,
2013-05-04 02:48:00,38.5,25.4,30.24,NNW,338,0.0,0.0,59,0.00,,,0.00,WUHU216HW,2013-05-04 06:48:00,
2013-05-04 02:53:00,38.3,23.5,30.24,NNW,338,0.0,0.2,55,0.00,,,0.00,WUHU216HW,2013-05-04 06:53:00,
2013-05-04 02:58:00,38.3,22.6,30.24,NNW,338,0.0,0.4,53,0.00,,,0.00,WUHU216HW,2013-05-04 06:58:00,
2013-05-04 03:03:00,38.3,23.5,30.24,NNW,338,0.2,0.4,55,0.00,,,0.00,WUHU216HW,2013-05-04 07:03:00,
2013-05-04 03:08:00,38.2,24.2,30.24,SE,135,0.0,0.7,57,0.00,,,0.00,WUHU216HW,2013-05-04 07:08:00,
2013-05-04 03:13:00,37.8,24.3,30.24,SE,135,0.0,0.7,58,0.00,,,0.00,WUHU216HW,2013-05-04 07:13:00,
2013-05-04 03:18:00,37.8,24.3,30.24,SE,135,0.0,0.0,58,0.00,,,0.00,WUHU216HW,2013-05-04 07:18:00,
2013-05-04 03:23:00,37.6,23.7,30.24,SE,135,0.0,0.0,57,0.00,,,0.00,WUHU216HW,2013-05-04 07:23:00,
2013-05-04 03:28:00,37.6,24.1,30.24,SE,135,0.0,0.0,58,0.00,,,0.00,WUHU216HW,2013-05-04 07:28:00,
2013-05-04 03:33:00,37.4,24.4,30.24,SE,135,0.0,0.0,59,0.00,,,0.00,WUHU216HW,2013-05-04 07:33:00,
2013-05-04 03:38:00,37.3,24.7,30.24,SE,135,0.0,0.0,60,0.00,,,0.00,WUHU216HW,2013-05-04 07:38:00,
2013-05-04 03:43:00,37.1,24.5,30.24,SE,135,0.0,0.0,60,0.00,,,0.00,WUHU216HW,2013-05-04 07:43:00,
2013-05-04 03:48:00,36.9,24.4,30.24,SE,135,0.0,0.0,60,0.00,,,0.00,WUHU216HW,2013-05-04 07:48:00,
2013-05-04 03:53:00,36.9,23.5,30.24,SE,135,0.0,0.0,58,0.00,,,0.00,WUHU216HW,2013-05-04 07:53:00,
2013-05-04 03:58:00,36.9,23.5,30.24,SE,135,0.0,0.0,58,0.00,,,0.00,WUHU216HW,2013-05-04 07:58:00,
2013-05-04 04:03:00,36.7,23.8,30.24,SE,135,0.0,0.0,59,0.00,,,0.00,WUHU216HW,2013-05-04 08:03:00,
2013-05-04 04:08:00,36.7,23.8,30.24,SE,135,0.0,0.0,59,0.00,,,0.00,WUHU216HW,2013-05-04 08:08:00,
2013-05-04 04:13:00,36.5,23.6,30.24,SE,135,0.0,0.0,59,0.00,,,0.00,WUHU216HW,2013-05-04 08:13:00,
2013-05-04 04:18:00,36.4,22.6,30.24,ESE,113,0.0,0.0,57,0.00,,,0.00,WUHU216HW,2013-05-04 08:18:00,
2013-05-04 04:23:00,36.4,22.6,30.24,ESE,113,0.0,0.0,57,0.00,,,0.00,WUHU216HW,2013-05-04 08:23:00,
2013-05-04 04:28:00,36.5,21.4,30.24,ESE,113,0.0,0.0,54,0.00,,,0.00,WUHU216HW,2013-05-04 08:28:00,
2013-05-04 04:34:00,36.7,21.2,30.24,ESE,113,0.0,0.0,53,0.00,,,0.00,WUHU216HW,2013-05-04 08:34:00,
2013-05-04 04:39:00,36.5,19.7,30.24,ESE,113,0.0,0.0,50,0.00,,,0.00,WUHU216HW,2013-05-04 08:39:00,
2013-05-04 04:44:00,36.5,20.6,30.24,ESE,113,0.0,0.0,52,0.00,,,0.00,WUHU216HW,2013-05-04 08:44:00,
2013-05-04 04:49:00,36.5,21.0,30.24,ESE,113,0.0,0.0,53,0.00,,,0.00,WUHU216HW,2013-05-04 08:49:00,
2013-05-04 04:54:00,36.4,21.2,30.24,ESE,113,0.0,0.0,54,0.00,,,0.00,WUHU216HW,2013-05-04 08:54:00,
2013-05-04 04:59:00,36.2,22.0,30.24,ESE,113,0.0,0.0,56,0.00,,,0.00,WUHU216HW,2013-05-04 08:59:00,
2013-05-04 05:04:00,36.0,22.2,30.24,ESE,113,0.0,0.0,57,0.00,,,0.00,WUHU216HW,2013-05-04 09:04:00,
2013-05-04 05:09:00,35.6,22.0,30.25,ESE,113,0.0,0.0,57,0.00,,,0.00,WUHU216HW,2013-05-04 09:09:00,
2013-05-04 05:14:00,35.6,22.3,30.24,ESE,113,0.0,0.0,58,0.00,,,0.00,WUHU216HW,2013-05-04 09:14:00,
2013-05-04 05:19:00,35.5,21.8,30.25,ESE,113,0.0,0.0,57,0.00,,,0.00,WUHU216HW,2013-05-04 09:19:00,
2013-05-04 05:24:00,35.6,21.5,30.25,ESE,113,0.0,0.0,56,0.00,,,0.00,WUHU216HW,2013-05-04 09:24:00,
2013-05-04 05:29:00,35.5,21.3,30.25,ESE,113,0.0,0.0,56,0.00,,,0.00,WUHU216HW,2013-05-04 09:29:00,
2013-05-04 05:34:00,35.3,20.7,30.25,ESE,113,0.0,0.0,55,0.00,,,0.00,WUHU216HW,2013-05-04 09:34:00,
2013-05-04 05:39:00,35.3,19.0,30.25,NNW,338,0.0,0.7,51,0.00,,,0.00,WUHU216HW,2013-05-04 09:39:00,
2013-05-04 05:44:00,35.5,18.2,30.25,NNW,338,0.0,0.7,49,0.00,,,0.00,WUHU216HW,2013-05-04 09:44:00,
2013-05-04 05:49:00,35.3,16.5,30.25,NNW,338,0.0,0.2,46,0.00,,,0.00,WUHU216HW,2013-05-04 09:49:00,
2013-05-04 05:54:00,35.5,17.6,30.25,NNW,338,0.0,0.4,48,0.00,,,0.00,WUHU216HW,2013-05-04 09:54:00,
2013-05-04 05:59:00,35.6,18.9,30.26,NNW,338,0.0,0.4,50,0.00,,,0.00,WUHU216HW,2013-05-04 09:59:00,
2013-05-04 06:04:00,35.5,19.2,30.26,NNW,338,0.0,0.0,51,0.00,,,0.00,WUHU216HW,2013-05-04 10:04:00,
2013-05-04 06:09:00,35.5,19.6,30.26,NNW,338,0.0,0.0,52,0.00,,,0.00,WUHU216HW,2013-05-04 10:09:00,
2013-05-04 06:14:00,35.3,19.5,30.26,NNW,338,0.0,0.0,52,0.00,,,0.00,WUHU216HW,2013-05-04 10:14:00,
2013-05-04 06:19:00,35.5,19.2,30.26,NNW,338,0.0,0.0,51,0.00,,,0.00,WUHU216HW,2013-05-04 10:19:00,
2013-05-04 06:24:00,35.5,19.2,30.26,NNW,338,0.0,0.0,51,0.00,,,0.00,WUHU216HW,2013-05-04 10:24:00,
2013-05-04 06:29:00,36.0,13.3,30.26,NNW,338,0.0,0.0,39,0.00,,,0.00,WUHU216HW,2013-05-04 10:29:00,
2013-05-04 06:34:00,37.4,7.0,30.26,NNW,338,0.0,0.2,28,0.00,,,0.00,WUHU216HW,2013-05-04 10:34:00,
2013-05-04 06:39:00,38.5,7.1,30.26,NNW,338,0.2,0.4,27,0.00,,,0.00,WUHU216HW,2013-05-04 10:39:00,
2013-05-04 06:44:00,40.1,13.9,30.26,NNW,338,0.0,0.4,34,0.00,,,0.00,WUHU216HW,2013-05-04 10:44:00,
2013-05-04 06:49:00,41.9,21.0,30.26,NNW,338,0.0,0.4,43,0.00,,,0.00,WUHU216HW,2013-05-04 10:49:00,
2013-05-04 06:54:00,42.7,29.3,30.26,North,0,0.4,0.4,59,0.00,,,0.00,WUHU216HW,2013-05-04 10:54:00,
2013-05-04 06:59:00,42.1,29.6,30.26,NNE,23,0.4,0.4,61,0.00,,,0.00,WUHU216HW,2013-05-04 10:59:00,
2013-05-04 07:04:00,41.6,29.5,30.26,ESE,113,0.0,0.9,62,0.00,,,0.00,WUHU216HW,2013-05-04 11:04:00,
2013-05-04 07:09:00,41.6,29.2,30.26,ESE,113,0.0,0.9,61,0.00,,,0.00,WUHU216HW,2013-05-04 11:09:00,
2013-05-04 07:14:00,41.6,29.2,30.26,ESE,113,0.0,0.2,61,0.00,,,0.00,WUHU216HW,2013-05-04 11:14:00,
2013-05-04 07:18:00,41.6,29.2,30.26,ESE,113,0.0,0.0,61,0.00,,,0.00,WUHU216HW,2013-05-04 11:18:00,
2013-05-04 07:19:00,41.6,29.2,30.26,ESE,113,0.0,0.0,61,0.00,,,0.00,WUHU216HW,2013-05-04 11:19:00,
2013-05-04 07:24:00,41.6,29.2,30.26,ESE,113,0.0,0.0,61,0.00,,,0.00,WUHU216HW,2013-05-04 11:24:00,
2013-05-04 10:07:00,63.0,46.5,30.23,ENE,68,1.1,4.0,55,0.00,,,0.00,WUHU216HW,2013-05-04 14:07:00,
2013-05-04 10:12:00,63.4,47.8,30.23,West,270,0.7,4.0,57,0.00,,,0.00,WUHU216HW,2013-05-04 14:12:00,
2013-05-04 10:17:00,64.1,49.0,30.23,North,0,1.8,1.8,58,0.00,,,0.00,WUHU216HW,2013-05-04 14:17:00,
2013-05-04 10:22:00,64.6,48.0,30.23,ENE,68,1.6,2.5,55,0.00,,,0.00,WUHU216HW,2013-05-04 14:22:00,
2013-05-04 10:27:00,65.2,46.5,30.22,ENE,68,1.1,2.5,51,0.00,,,0.00,WUHU216HW,2013-05-04 14:27:00,
2013-05-04 10:32:00,65.7,48.1,30.22,WNW,293,0.4,2.7,53,0.00,,,0.00,WUHU216HW,2013-05-04 14:32:00,
2013-05-04 10:37:00,66.2,49.6,30.21,ESE,113,0.4,2.7,55,0.00,,,0.00,WUHU216HW,2013-05-04 14:37:00,
2013-05-04 10:42:00,66.8,48.2,30.21,SW,225,0.4,1.8,51,0.00,,,0.00,WUHU216HW,2013-05-04 14:42:00,
2013-05-04 10:47:00,67.3,46.4,30.21,NNE,23,3.6,3.6,47,0.00,,,0.00,WUHU216HW,2013-05-04 14:47:00,
2013-05-04 10:52:00,67.1,44.4,30.21,NW,315,2.7,3.6,44,0.00,,,0.00,WUHU216HW,2013-05-04 14:52:00,
2013-05-04 10:57:00,67.1,46.8,30.21,NNW,338,3.8,4.0,48,0.00,,,0.00,WUHU216HW,2013-05-04 14:57:00,
2013-05-04 11:02:00,68.0,49.2,30.21,SE,135,2.7,4.0,51,0.00,,,0.00,WUHU216HW,2013-05-04 15:02:00,
2013-05-04 11:07:00,68.8,50.0,30.21,SSE,158,2.7,4.0,51,0.00,,,0.00,WUHU216HW,2013-05-04 15:07:00,
2013-05-04 11:12:00,69.1,50.2,30.21,NE,45,0.9,4.0,51,0.00,,,0.00,WUHU216HW,2013-05-04 15:12:00,
2013-05-04 11:17:00,69.5,46.5,30.20,North,0,1.8,2.7,44,0.00,,,0.00,WUHU216HW,2013-05-04 15:17:00,
2013-05-04 11:22:00,69.3,47.5,30.20,North,0,2.5,3.4,46,0.00,,,0.00,WUHU216HW,2013-05-04 15:22:00,
2013-05-04 11:28:00,69.1,47.3,30.20,North,0,1.1,3.4,46,0.00,,,0.00,WUHU216HW,2013-05-04 15:28:00,
2013-05-04 11:33:00,68.8,44.6,30.20,NNE,23,0.7,2.7,42,0.00,,,0.00,WUHU216HW,2013-05-04 15:33:00,
2013-05-04 11:38:00,69.8,49.2,30.19,SE,135,2.2,4.9,48,0.00,,,0.00,WUHU216HW,2013-05-04 15:38:00,
2013-05-04 11:43:00,70.6,49.2,30.19,SE,135,4.0,4.9,47,0.00,,,0.00,WUHU216HW,2013-05-04 15:43:00,
2013-05-04 11:48:00,71.6,50.2,30.19,SSE,158,2.5,5.1,47,0.00,,,0.00,WUHU216HW,2013-05-04 15:48:00,
2013-05-04 11:53:00,71.6,49.7,30.19,SSE,158,1.8,5.1,46,0.00,,,0.00,WUHU216HW,2013-05-04 15:53:00,
2013-05-04 11:58:00,71.6,48.4,30.18,ESE,113,1.3,5.1,44,0.00,,,0.00,WUHU216HW,2013-05-04 15:58:00,
2013-05-04 12:03:00,71.8,44.0,30.18,NNE,23,4.7,4.7,37,0.00,,,0.00,WUHU216HW,2013-05-04 16:03:00,
2013-05-04 12:08:00,71.6,46.1,30.18,NNE,23,0.4,4.7,40,0.00,,,0.00,WUHU216HW,2013-05-04 16:08:00,
2013-05-04 12:13:00,72.0,44.2,30.18,NNE,23,1.1,4.7,37,0.00,,,0.00,WUHU216HW,2013-05-04 16:13:00,
2013-05-04 12:18:00,72.5,46.9,30.18,ESE,113,2.2,5.1,40,0.00,,,0.00,WUHU216HW,2013-05-04 16:18:00,
2013-05-04 12:23:00,73.1,45.1,30.17,North,0,1.1,5.1,37,0.00,,,0.00,WUHU216HW,2013-05-04 16:23:00,
2013-05-04 12:28:00,73.4,43.9,30.17,SSE,158,3.8,5.6,35,0.00,,,0.00,WUHU216HW,2013-05-04 16:28:00,
2013-05-04 12:33:00,73.8,41.9,30.17,West,270,0.4,5.8,32,0.00,,,0.00,WUHU216HW,2013-05-04 16:33:00,
2013-05-04 12:38:00,73.8,43.5,30.17,SE,135,2.0,5.8,34,0.00,,,0.00,WUHU216HW,2013-05-04 16:38:00,
2013-05-04 12:43:00,74.3,46.3,30.16,SW,225,2.5,3.4,37,0.00,,,0.00,WUHU216HW,2013-05-04 16:43:00,
2013-05-04 12:48:00,75.1,47.6,30.16,SSE,158,2.5,5.4,38,0.00,,,0.00,WUHU216HW,2013-05-04 16:48:00,
2013-05-04 12:53:00,75.6,48.2,30.16,SSE,158,2.9,5.4,38,0.00,,,0.00,WUHU216HW,2013-05-04 16:53:00,
2013-05-04 12:58:00,75.6,45.1,30.16,ESE,113,5.4,6.9,34,0.00,,,0.00,WUHU216HW,2013-05-04 16:58:00,
2013-05-04 13:03:00,75.2,44.0,30.16,NW,315,0.4,6.9,33,0.00,,,0.00,WUHU216HW,2013-05-04 17:03:00,
2013-05-04 13:08:00,75.2,42.5,30.16,North,0,4.0,5.8,31,0.00,,,0.00,WUHU216HW,2013-05-04 17:08:00,
2013-05-04 13:13:00,74.7,40.2,30.16,North,0,2.0,5.8,29,0.00,,,0.00,WUHU216HW,2013-05-04 17:13:00,
2013-05-04 13:18:00,74.2,41.6,30.15,North,0,3.4,8.1,31,0.00,,,0.00,WUHU216HW,2013-05-04 17:18:00,
2013-05-04 13:23:00,74.2,40.8,30.16,NNE,23,1.1,8.1,30,0.00,,,0.00,WUHU216HW,2013-05-04 17:23:00,
2013-05-04 13:28:00,74.5,40.1,30.15,SW,225,0.7,6.3,29,0.00,,,0.00,WUHU216HW,2013-05-04 17:28:00,
2013-05-04 13:33:00,74.5,37.1,30.15,NNE,23,2.5,4.0,26,0.00,,,0.00,WUHU216HW,2013-05-04 17:33:00,
2013-05-04 13:38:00,75.2,42.5,30.15,SE,135,0.4,4.0,31,0.00,,,0.00,WUHU216HW,2013-05-04 17:38:00,
2013-05-04 13:43:00,75.6,40.1,30.15,North,0,4.0,4.0,28,0.00,,,0.00,WUHU216HW,2013-05-04 17:43:00,
2013-05-04 13:48:00,74.9,37.4,30.14,NNW,338,3.4,6.0,26,0.00,,,0.00,WUHU216HW,2013-05-04 17:48:00,
2013-05-04 13:53:00,74.9,41.4,30.14,SSW,203,1.8,12.1,30,0.00,,,0.00,WUHU216HW,2013-05-04 17:53:00,
2013-05-04 13:58:00,75.8,41.2,30.14,NE,45,2.0,12.1,29,0.00,,,0.00,WUHU216HW,2013-05-04 17:58:00,
2013-05-04 14:03:00,76.3,40.7,30.14,WSW,248,3.4,3.6,28,0.00,,,0.00,WUHU216HW,2013-05-04 18:03:00,
2013-05-04 14:08:00,76.1,37.4,30.14,NNW,338,2.5,5.4,25,0.00,,,0.00,WUHU216HW,2013-05-04 18:08:00,
2013-05-04 14:13:00,75.2,34.6,30.13,NW,315,3.6,5.4,23,0.00,,,0.00,WUHU216HW,2013-05-04 18:13:00,
2013-05-04 14:18:00,75.6,38.0,30.13,North,0,2.5,5.4,26,0.00,,,0.00,WUHU216HW,2013-05-04 18:18:00,
2013-05-04 14:23:00,76.5,42.9,30.13,SSW,203,3.4,6.9,30,0.00,,,0.00,WUHU216HW,2013-05-04 18:23:00,
2013-05-04 14:28:00,77.0,41.3,30.13,ESE,113,1.1,6.9,28,0.00,,,0.00,WUHU216HW,2013-05-04 18:28:00,
2013-05-04 14:33:00,77.8,42.9,30.13,South,180,0.9,4.7,29,0.00,,,0.00,WUHU216HW,2013-05-04 18:33:00,
2013-05-04 14:38:00,77.9,43.0,30.13,WNW,293,1.8,4.5,29,0.00,,,0.00,WUHU216HW,2013-05-04 18:38:00,
2013-05-04 14:43:00,77.8,37.7,30.12,NE,45,3.4,4.7,24,0.00,,,0.00,WUHU216HW,2013-05-04 18:43:00,
2013-05-04 14:48:00,77.0,37.1,30.12,East,90,2.9,5.6,24,0.00,,,0.00,WUHU216HW,2013-05-04 18:48:00,
2013-05-04 14:53:00,77.2,38.4,30.12,SSW,203,1.3,5.6,25,0.00,,,0.00,WUHU216HW,2013-05-04 18:53:00,
2013-05-04 14:59:00,77.6,41.8,30.12,SE,135,2.0,4.7,28,0.00,,,0.00,WUHU216HW,2013-05-04 18:59:00,
2013-05-04 15:04:00,78.1,44.3,30.12,WSW,248,2.0,6.3,30,0.00,,,0.00,WUHU216HW,2013-05-04 19:04:00,
2013-05-04 15:09:00,78.7,44.6,30.11,SSE,158,3.1,6.3,30,0.00,,,0.00,WUHU216HW,2013-05-04 19:09:00,
2013-05-04 15:14:00,78.8,44.8,30.11,SE,135,1.6,4.3,30,0.00,,,0.00,WUHU216HW,2013-05-04 19:14:00,
2013-05-04 15:19:00,78.8,44.8,30.11,WNW,293,3.1,4.5,30,0.00,,,0.00,WUHU216HW,2013-05-04 19:19:00,
2013-05-04 15:24:00,78.5,43.5,30.11,SE,135,4.3,4.5,29,0.00,,,0.00,WUHU216HW,2013-05-04 19:24:00,
2013-05-04 15:29:00,78.5,42.5,30.11,West,270,4.5,4.5,28,0.00,,,0.00,WUHU216HW,2013-05-04 19:29:00,
2013-05-04 15:34:00,78.5,44.6,30.11,SSE,158,2.0,4.5,30,0.00,,,0.00,WUHU216HW,2013-05-04 19:34:00,
2013-05-04 15:39:00,78.8,45.6,30.11,West,270,1.8,4.7,31,0.00,,,0.00,WUHU216HW,2013-05-04 19:39:00,
2013-05-04 15:44:00,78.8,44.8,30.10,SE,135,1.1,4.7,30,0.00,,,0.00,WUHU216HW,2013-05-04 19:44:00,
2013-05-04 15:49:00,78.8,44.8,30.10,WSW,248,1.1,4.7,30,0.00,,,0.00,WUHU216HW,2013-05-04 19:49:00,
2013-05-04 15:54:00,78.7,43.7,30.10,West,270,1.1,3.6,29,0.00,,,0.00,WUHU216HW,2013-05-04 19:54:00,
2013-05-04 15:59:00,78.5,37.3,30.10,NNW,338,1.3,3.1,23,0.00,,,0.00,WUHU216HW,2013-05-04 19:59:00,
2013-05-04 16:04:00,77.9,43.0,30.09,WSW,248,3.4,6.3,29,0.00,,,0.00,WUHU216HW,2013-05-04 20:04:00,
2013-05-04 16:09:00,78.3,43.4,30.09,SSE,158,2.7,6.3,29,0.00,,,0.00,WUHU216HW,2013-05-04 20:09:00,
2013-05-04 16:14:00,78.7,44.6,30.09,SE,135,6.7,6.7,30,0.00,,,0.00,WUHU216HW,2013-05-04 20:14:00,
2013-05-04 16:19:00,78.8,43.7,30.09,SSE,158,6.3,6.7,29,0.00,,,0.00,WUHU216HW,2013-05-04 20:19:00,
2013-05-04 16:24:00,78.5,45.3,30.09,SSE,158,2.9,6.7,31,0.00,,,0.00,WUHU216HW,2013-05-04 20:24:00,
2013-05-04 16:29:00,78.3,45.2,30.09,South,180,1.1,6.3,31,0.00,,,0.00,WUHU216HW,2013-05-04 20:29:00,
2013-05-04 16:34:00,78.3,45.2,30.09,East,90,0.2,4.9,31,0.00,,,0.00,WUHU216HW,2013-05-04 20:34:00,
2013-05-04 16:39:00,78.5,45.3,30.08,SE,135,2.9,2.9,31,0.00,,,0.00,WUHU216HW,2013-05-04 20:39:00,
2013-05-04 16:44:00,78.1,44.3,30.08,ESE,113,0.9,4.7,30,0.00,,,0.00,WUHU216HW,2013-05-04 20:44:00,
2013-05-04 16:49:00,78.1,42.1,30.08,SE,135,4.0,4.7,28,0.00,,,0.00,WUHU216HW,2013-05-04 20:49:00,
2013-05-04 16:54:00,78.1,45.0,30.08,WSW,248,1.6,4.0,31,0.00,,,0.00,WUHU216HW,2013-05-04 20:54:00,
2013-05-04 16:59:00,78.1,45.0,30.08,SE,135,0.7,3.1,31,0.00,,,0.00,WUHU216HW,2013-05-04 20:59:00,
2013-05-04 17:04:00,78.1,45.0,30.08,WSW,248,0.4,2.5,31,0.00,,,0.00,WUHU216HW,2013-05-04 21:04:00,
2013-05-04 17:09:00,77.8,45.5,30.08,SE,135,1.8,3.8,32,0.00,,,0.00,WUHU216HW,2013-05-04 21:09:00,
2013-05-04 17:14:00,77.4,42.7,30.08,NW,315,1.8,4.7,29,0.00,,,0.00,WUHU216HW,2013-05-04 21:14:00,
2013-05-04 17:19:00,77.4,41.6,30.08,NW,315,3.6,4.7,28,0.00,,,0.00,WUHU216HW,2013-05-04 21:19:00,
2013-05-04 17:24:00,77.4,45.2,30.08,SSE,158,4.0,4.0,32,0.00,,,0.00,WUHU216HW,2013-05-04 21:24:00,
2013-05-04 17:29:00,78.8,44.8,30.08,WSW,248,1.1,6.7,30,0.00,,,0.00,WUHU216HW,2013-05-04 21:29:00,
2013-05-04 17:34:00,79.9,45.8,30.08,SE,135,0.4,6.7,30,0.00,,,0.00,WUHU216HW,2013-05-04 21:34:00,
2013-05-04 17:39:00,80.6,45.4,30.08,WSW,248,0.9,3.4,29,0.00,,,0.00,WUHU216HW,2013-05-04 21:39:00,
2013-05-04 17:44:00,80.8,45.5,30.08,SE,135,1.3,3.4,29,0.00,,,0.00,WUHU216HW,2013-05-04 21:44:00,
2013-05-04 17:49:00,78.8,42.8,30.08,SSE,158,1.8,2.9,28,0.00,,,0.00,WUHU216HW,2013-05-04 21:49:00,
2013-05-04 17:54:00,76.3,41.7,30.08,WSW,248,1.1,2.9,29,0.00,,,0.00,WUHU216HW,2013-05-04 21:54:00,
2013-05-04 17:59:00,74.5,41.1,30.08,ESE,113,1.8,4.0,30,0.00,,,0.00,WUHU216HW,2013-05-04 21:59:00,
2013-05-04 18:04:00,73.8,41.2,30.08,South,180,0.9,4.0,31,0.00,,,0.00,WUHU216HW,2013-05-04 22:04:00,
2013-05-04 18:10:00,73.1,41.4,30.08,SW,225,1.1,1.8,32,0.00,,,0.00,WUHU216HW,2013-05-04 22:10:00,
2013-05-04 18:15:00,72.0,40.5,30.08,SSE,158,1.8,1.8,32,0.00,,,0.00,WUHU216HW,2013-05-04 22:15:00,
2013-05-04 18:20:00,71.3,40.6,30.08,SW,225,0.9,1.8,33,0.00,,,0.00,WUHU216HW,2013-05-04 22:20:00,
2013-05-04 18:25:00,70.6,40.7,30.08,WSW,248,0.9,1.8,34,0.00,,,0.00,WUHU216HW,2013-05-04 22:25:00,
2013-05-04 18:30:00,69.8,40.1,30.08,SW,225,0.4,1.3,34,0.00,,,0.00,WUHU216HW,2013-05-04 22:30:00,
2013-05-04 18:35:00,69.5,39.7,30.08,ESE,113,1.1,1.3,34,0.00,,,0.00,WUHU216HW,2013-05-04 22:35:00,
2013-05-04 18:40:00,69.1,40.2,30.08,SW,225,0.4,2.9,35,0.00,,,0.00,WUHU216HW,2013-05-04 22:40:00,
2013-05-04 18:45:00,68.8,41.3,30.08,SSE,158,1.1,2.9,37,0.00,,,0.00,WUHU216HW,2013-05-04 22:45:00,
2013-05-04 18:50:00,68.4,41.0,30.08,SE,135,2.0,2.5,37,0.00,,,0.00,WUHU216HW,2013-05-04 22:50:00,
2013-05-04 18:55:00,68.0,41.4,30.08,SW,225,1.1,3.8,38,0.00,,,0.00,WUHU216HW,2013-05-04 22:55:00,
2013-05-04 19:00:00,67.5,40.9,30.08,SW,225,0.4,3.8,38,0.00,,,0.00,WUHU216HW,2013-05-04 23:00:00,
2013-05-04 19:05:00,67.5,40.9,30.08,SE,135,1.1,1.8,38,0.00,,,0.00,WUHU216HW,2013-05-04 23:05:00,
2013-05-04 19:10:00,66.6,40.9,30.08,South,180,1.6,4.0,39,0.00,,,0.00,WUHU216HW,2013-05-04 23:10:00,
2013-05-04 19:15:00,66.6,40.9,30.08,SSW,203,0.4,4.9,39,0.00,,,0.00,WUHU216HW,2013-05-04 23:15:00,
2013-05-04 19:20:00,66.6,40.9,30.09,South,180,0.9,4.9,39,0.00,,,0.00,WUHU216HW,2013-05-04 23:20:00,
2013-05-04 19:25:00,65.9,40.1,30.09,SE,135,3.4,4.5,39,0.00,,,0.00,WUHU216HW,2013-05-04 23:25:00,
2013-05-04 19:30:00,65.5,39.2,30.09,SSE,158,1.6,4.5,38,0.00,,,0.00,WUHU216HW,2013-05-04 23:30:00,
2013-05-04 19:35:00,65.5,39.9,30.09,ESE,113,1.8,4.3,39,0.00,,,0.00,WUHU216HW,2013-05-04 23:35:00,
2013-05-04 19:40:00,65.3,39.0,30.10,SE,135,3.4,4.3,38,0.00,,,0.00,WUHU216HW,2013-05-04 23:40:00,
2013-05-04 19:45:00,65.0,38.6,30.10,SSW,203,0.7,4.5,38,0.00,,,0.00,WUHU216HW,2013-05-04 23:45:00,
2013-05-04 19:50:00,64.4,38.2,30.10,SSE,158,2.5,4.5,38,0.00,,,0.00,WUHU216HW,2013-05-04 23:50:00,
2013-05-04 19:55:00,64.1,37.8,30.10,ESE,113,0.0,2.7,38,0.00,,,0.00,WUHU216HW,2013-05-04 23:55:00,
2013-05-04 20:00:00,63.5,37.4,30.10,SE,135,0.9,1.1,38,0.00,,,0.00,WUHU216HW,2013-05-05 00:00:00,
2013-05-04 20:05:00,63.0,37.6,30.10,SW,225,0.0,1.1,39,0.00,,,0.00,WUHU216HW,2013-05-05 00:05:00,
2013-05-04 20:10:00,62.3,36.9,30.11,SW,225,0.0,1.1,39,0.00,,,0.00,WUHU216HW,2013-05-05 00:10:00,
2013-05-04 20:15:00,61.6,36.3,30.11,SW,225,0.0,0.0,39,0.00,,,0.00,WUHU216HW,2013-05-05 00:15:00,
2013-05-04 20:20:00,60.8,36.9,30.11,SW,225,0.0,0.4,41,0.00,,,0.00,WUHU216HW,2013-05-05 00:20:00,
2013-05-04 20:25:00,59.8,36.0,30.11,SW,225,0.0,0.4,41,0.00,,,0.00,WUHU216HW,2013-05-05 00:25:00,
2013-05-04 20:30:00,59.0,36.5,30.12,NNW,338,0.0,0.4,43,0.00,,,0.00,WUHU216HW,2013-05-05 00:30:00,
2013-05-04 20:35:00,58.3,37.0,30.12,North,0,0.0,1.1,45,0.00,,,0.00,WUHU216HW,2013-05-05 00:35:00,
2013-05-04 20:40:00,58.0,37.3,30.12,North,0,0.0,1.1,46,0.00,,,0.00,WUHU216HW,2013-05-05 00:40:00,
2013-05-04 20:45:00,57.4,36.7,30.12,West,270,0.2,0.9,46,0.00,,,0.00,WUHU216HW,2013-05-05 00:45:00,
2013-05-04 20:50:00,56.9,37.4,30.13,West,270,0.2,0.9,48,0.00,,,0.00,WUHU216HW,2013-05-05 00:50:00,
2013-05-04 20:55:00,56.3,36.8,30.13,NW,315,0.4,0.9,48,0.00,,,0.00,WUHU216HW,2013-05-05 00:55:00,
2013-05-04 21:00:00,55.8,37.4,30.13,North,0,0.0,1.1,50,0.00,,,0.00,WUHU216HW,2013-05-05 01:00:00,
2013-05-04 21:05:00,55.3,38.4,30.13,North,0,0.4,1.1,53,0.00,,,0.00,WUHU216HW,2013-05-05 01:05:00,
2013-05-04 21:10:00,54.7,37.8,30.14,North,0,0.0,1.1,53,0.00,,,0.00,WUHU216HW,2013-05-05 01:10:00,
2013-05-04 21:16:00,54.4,37.1,30.14,North,0,0.0,1.1,52,0.00,,,0.00,WUHU216HW,2013-05-05 01:16:00,
2013-05-04 21:21:00,53.6,39.3,30.14,North,0,1.1,2.5,58,0.00,,,0.00,WUHU216HW,2013-05-05 01:21:00,
2013-05-04 21:26:00,53.5,37.6,30.14,SSE,158,1.1,2.5,55,0.00,,,0.00,WUHU216HW,2013-05-05 01:26:00,
2013-05-04 21:31:00,53.1,37.7,30.14,SSW,203,0.0,1.1,56,0.00,,,0.00,WUHU216HW,2013-05-05 01:31:00,
2013-05-04 21:36:00,52.7,37.5,30.14,ESE,113,0.0,0.7,56,0.00,,,0.00,WUHU216HW,2013-05-05 01:36:00,
2013-05-04 21:41:00,52.2,38.3,30.14,ESE,113,0.0,1.1,59,0.00,,,0.00,WUHU216HW,2013-05-05 01:41:00,
2013-05-04 21:46:00,52.2,38.3,30.14,SE,135,0.2,1.1,59,0.00,,,0.00,WUHU216HW,2013-05-05 01:46:00,
2013-05-04 21:51:00,51.7,38.2,30.14,NNW,338,0.0,1.1,60,0.00,,,0.00,WUHU216HW,2013-05-05 01:51:00,
2013-05-04 21:56:00,51.3,38.7,30.15,NNW,338,1.1,1.3,62,0.00,,,0.00,WUHU216HW,2013-05-05 01:56:00,
2013-05-04 22:01:00,51.3,39.9,30.15,NNW,338,0.2,1.3,65,0.00,,,0.00,WUHU216HW,2013-05-05 02:01:00,
2013-05-04 22:06:00,51.3,39.1,30.15,SSE,158,0.0,2.0,63,0.00,,,0.00,WUHU216HW,2013-05-05 02:06:00,
2013-05-04 22:11:00,51.3,38.7,30.15,SSW,203,0.4,2.0,62,0.00,,,0.00,WUHU216HW,2013-05-05 02:11:00,
2013-05-04 22:16:00,51.1,38.5,30.16,WNW,293,0.0,1.3,62,0.00,,,0.00,WUHU216HW,2013-05-05 02:16:00,
2013-05-04 22:21:00,50.8,40.2,30.16,NW,315,1.1,1.1,67,0.00,,,0.00,WUHU216HW,2013-05-05 02:21:00,
2013-05-04 22:26:00,50.4,38.6,30.16,NNW,338,0.0,1.1,64,0.00,,,0.00,WUHU216HW,2013-05-05 02:26:00,
2013-05-04 22:31:00,50.2,38.4,30.16,East,90,0.0,0.9,64,0.00,,,0.00,WUHU216HW,2013-05-05 02:31:00,
2013-05-04 22:36:00,50.0,38.4,30.16,East,90,0.2,1.6,64,0.00,,,0.00,WUHU216HW,2013-05-05 02:36:00,
2013-05-04 22:41:00,50.2,38.4,30.16,WSW,248,0.4,1.6,64,0.00,,,0.00,WUHU216HW,2013-05-05 02:41:00,
2013-05-04 22:46:00,50.0,38.4,30.16,ENE,68,0.4,1.6,64,0.00,,,0.00,WUHU216HW,2013-05-05 02:46:00,
2013-05-04 22:51:00,50.0,38.7,30.16,East,90,0.7,1.6,65,0.00,,,0.00,WUHU216HW,2013-05-05 02:51:00,
2013-05-04 22:56:00,50.0,38.4,30.16,SW,225,0.0,1.1,64,0.00,,,0.00,WUHU216HW,2013-05-05 02:56:00,
2013-05-04 23:01:00,49.7,38.0,30.16,SW,225,0.0,0.9,64,0.00,,,0.00,WUHU216HW,2013-05-05 03:01:00,
2013-05-04 23:06:00,49.7,38.8,30.16,North,0,0.4,1.3,66,0.00,,,0.00,WUHU216HW,2013-05-05 03:06:00,
2013-05-04 23:11:00,49.3,39.2,30.17,NNW,338,0.7,1.3,68,0.00,,,0.00,WUHU216HW,2013-05-05 03:11:00,
2013-05-04 23:16:00,49.3,39.6,30.17,NNW,338,0.7,1.3,69,0.00,,,0.00,WUHU216HW,2013-05-05 03:16:00,
2013-05-04 23:21:00,49.1,38.3,30.16,WSW,248,0.0,1.3,66,0.00,,,0.00,WUHU216HW,2013-05-05 03:21:00,
2013-05-04 23:26:00,49.0,37.7,30.17,NNW,338,0.9,0.9,65,0.00,,,0.00,WUHU216HW,2013-05-05 03:26:00,
2013-05-04 23:31:00,49.0,38.8,30.17,NNW,338,0.0,1.3,68,0.00,,,0.00,WUHU216HW,2013-05-05 03:31:00,
2013-05-04 23:36:00,49.1,38.3,30.17,NNW,338,0.0,1.3,66,0.00,,,0.00,WUHU216HW,2013-05-05 03:36:00,
2013-05-04 23:41:00,49.1,37.4,30.17,WSW,248,0.0,0.7,64,0.00,,,0.00,WUHU216HW,2013-05-05 03:41:00,
2013-05-04 23:46:00,49.3,37.6,30.17,SSE,158,0.0,1.8,64,0.00,,,0.00,WUHU216HW,2013-05-05 03:46:00,
2013-05-04 23:51:00,49.3,37.3,30.17,WSW,248,0.4,1.8,63,0.00,,,0.00,WUHU216HW,2013-05-05 03:51:00,
2013-05-04 23:56:00,49.3,36.8,30.17,WSW,248,0.2,1.3,62,0.00,,,0.00,WUHU216HW,2013-05-05 03:56:00,